Russellville, AR

6:17 PM CDT on June 20, 2018 (GMT -0500)
Russellville Regional

Weather History for KRUE - August, 2017

Change the Weather History Date:

Sunday, August 13, 2017

  Actual Average (KHOT) Record (KHOT)
Temperature  
Mean Temperature 70 °F -  
Max Temperature 75 °F 92 °F 106 °F (1980)
Min Temperature 66 °F 68 °F 53 °F (1967)
Cooling Degree Days 6    
Growing Degree Days 20 (Base 50)    
Moisture  
Dew Point 69 °F    
Average Humidity 91    
Maximum Humidity 100    
Minimum Humidity 76    
Precipitation  
Precipitation 0.20 in - - ()
Sea Level Pressure  
Sea Level Pressure 29.92 in    
Wind  
Wind Speed 5 mph (East)    
Max Wind Speed 9 mph    
Max Gust Speed -    
Visibility 9 miles    
Events Rain    
Averages and records for this station are not official NWS values.
T = Trace of Precipitation, MM = Missing Value Source: NWS Daily Summary

Daily Weather History Graph

Daily Weather History Graph

Search for Another Location

Airport or City:

Astronomy

Aug. 13, 2017 Rise Set
Actual Time 6:30 AM CDT 8:03 PM CDT
Civil Twilight 6:03 AM CDT 8:30 PM CDT
Nautical Twilight 5:31 AM CDT 9:02 PM CDT
Astronomical Twilight 4:56 AM CDT 9:36 PM CDT
Moon 11:51 PM CDT (8/13) 12:18 PM CDT (8/13)
Length of Visible Light 14h 26m
Length of Day
13h 32m
Waning Gibbous, 65% of the Moon is Illuminated
Aug 13
Waning Gibbous
Aug 14
Last Quarter
Aug 21
New
Aug 29
First Quarter
Sep 6
Full

Hourly Weather History & Observations

Time (CDT) Temp. Dew Point Humidity Pressure Visibility Wind Dir Wind Speed Gust Speed Precip Events Conditions
12:53 AM 75.9 °F 68.0 °F 76% 29.96 in 10.0 mi East 3.5 mph - N/A   Mostly Cloudy
1:53 AM 75.0 °F 66.9 °F 76% 29.96 in 10.0 mi ENE 5.8 mph - N/A   Mostly Cloudy
2:53 AM 75.0 °F 66.9 °F 76% 29.95 in 10.0 mi East 6.9 mph - N/A   Overcast
3:53 AM 73.9 °F 66.0 °F 76% 29.95 in 10.0 mi East 6.9 mph - N/A   Overcast
4:53 AM 73.0 °F 66.0 °F 79% 29.94 in 10.0 mi East 9.2 mph - 0.00 in Rain Light Rain
5:53 AM 72.0 °F 64.9 °F 78% 29.94 in 10.0 mi East 8.1 mph - 0.00 in   Overcast
6:53 AM 70.0 °F 66.0 °F 87% 29.96 in 10.0 mi South 3.5 mph - 0.02 in   Overcast
7:53 AM 66.9 °F 64.0 °F 90% 29.98 in 10.0 mi East 8.1 mph - 0.05 in   Overcast
8:53 AM 66.9 °F 66.0 °F 97% 29.98 in 10.0 mi Variable 5.8 mph - 0.03 in Rain Light Rain
9:53 AM 68.0 °F 64.9 °F 90% 29.97 in 10.0 mi North 4.6 mph - 0.04 in Rain Light Rain
10:53 AM 69.1 °F 66.9 °F 93% 29.97 in 10.0 mi ENE 3.5 mph - 0.02 in Rain Light Rain
11:14 AM 69.1 °F 66.0 °F 90% 29.99 in 10.0 mi ENE 3.5 mph - 0.00 in   Overcast
11:53 AM 69.1 °F 66.9 °F 93% 29.96 in 10.0 mi East 3.5 mph - 0.01 in Rain Light Rain
12:53 PM 71.1 °F 68.0 °F 90% 29.95 in 10.0 mi ENE 6.9 mph - 0.01 in   Overcast
1:53 PM 71.1 °F 69.1 °F 93% 29.93 in 10.0 mi ENE 6.9 mph - 0.00 in   Overcast
2:14 PM 73.0 °F 70.0 °F 90% 29.94 in 10.0 mi Variable 4.6 mph - N/A   Overcast
2:53 PM 73.0 °F 70.0 °F 90% 29.91 in 10.0 mi Variable 3.5 mph - 0.00 in   Overcast
3:53 PM 73.9 °F 71.1 °F 91% 29.89 in 10.0 mi East 5.8 mph - N/A   Overcast
4:53 PM 73.0 °F 71.1 °F 93% 29.89 in 10.0 mi Variable 5.8 mph - N/A   Overcast
5:37 PM 73.0 °F 71.1 °F 93% 29.91 in 10.0 mi Variable 4.6 mph - N/A   Overcast
5:53 PM 73.0 °F 71.1 °F 93% 29.88 in 10.0 mi East 4.6 mph - N/A   Overcast
6:53 PM 73.0 °F 72.0 °F 96% 29.87 in 10.0 mi East 4.6 mph - N/A   Overcast
7:53 PM 73.0 °F 72.0 °F 96% 29.87 in 3.0 mi Variable 3.5 mph - N/A   Overcast
8:21 PM 73.0 °F 73.0 °F 100% 29.89 in 6.0 mi Calm Calm - N/A   Overcast
8:53 PM 73.0 °F 73.0 °F 100% 29.87 in 10.0 mi Calm Calm - N/A   Overcast
9:07 PM 73.0 °F 73.0 °F 100% 29.90 in 10.0 mi Calm Calm - N/A   Overcast
9:30 PM 73.0 °F 72.0 °F 96% 29.90 in 7.0 mi Variable 4.6 mph - 0.00 in Rain Light Rain
9:53 PM 73.0 °F 73.0 °F 100% 29.88 in 3.0 mi Calm Calm - 0.01 in Rain Light Rain
10:36 PM 73.0 °F 73.0 °F 100% 29.90 in 10.0 mi Calm Calm - 0.01 in   Overcast
10:53 PM 73.0 °F 73.0 °F 100% 29.88 in 10.0 mi Calm Calm - 0.01 in   Overcast
11:53 PM 73.0 °F 73.0 °F 100% 29.87 in 10.0 mi Calm Calm - N/A   Overcast